Hourly Data Report for September 14, 2017

All times are specified in Local Standard Time (LST). Add 1 hour to adjust for Daylight Saving Time where and when it is observed.

ARCTIC BAY CS
NUNAVUT

72°59'34.000" N
85°00'44.000" W
10.00 m
2400404
71592
XAT

Download Data

Hourly Data (September 2017)
Hourly Data Report for September 14, 2017
Temp Definition
°C
Dew Point Temp Definition
°C
Rel Hum Definition
%
Wind Dir Definition
10's deg

Wind Spd Definition
km/h
Visibility Definition
km
Stn Press Definition
kPa
Hmdx Definition


Wind Chill Definition


Weather Definition


TIME
00:00 -1.7 -5.8 74 6 13   101.70   -6 LegendNANA
01:00 -1.0 -5.0 74 8 10   101.69   -5 LegendNANA
02:00 -0.7 -4.4 76 7 7   101.70   -3 LegendNANA
03:00 -0.5 -4.8 73 6 3   101.69   -1 LegendNANA
04:00 -0.6 -4.5 75 7 5   101.69   -2 LegendNANA
05:00 -0.3 -4.4 74 2 2   101.68   -1 LegendNANA
06:00 -0.6 -4.3 76 9 4   101.69   -2 LegendNANA
07:00 -0.3 -4.1 76 17 7   101.68   -3 LegendNANA
08:00 -0.6 -3.1 83 2 4   101.65   -2 LegendNANA
09:00 -0.1 -3.1 80 12 1   101.62   0 LegendNANA
10:00 0.0 -3.7 76 16 4   101.60   -1 LegendNANA
11:00 0.5 -3.5 74 16 5   101.54     LegendNANA
12:00 0.8 -2.9 76 20 5   101.51     LegendNANA
13:00 0.5 -2.6 80 29 6   101.48     LegendNANA
14:00 1.3 -2.1 78 29 5   101.45     LegendNANA
15:00 1.8 -2.3 74 31 3   101.39     LegendNANA
16:00 0.8 -1.9 82 29 13   101.39     LegendNANA
17:00 0.8 -2.0 82 32 11   101.36     LegendNANA
18:00 0.4 -1.7 86 33 12   101.34     LegendNANA
19:00 -0.1 -1.7 89 32 10   101.27   -3 LegendNANA
20:00 -0.7 -2.1 90 34 5   101.23   -2 LegendNANA
21:00 -0.2 -2.2 86   0   101.19     LegendNANA
22:00 0.0 -1.7 88 32 1   101.12   0 LegendNANA
23:00 -0.1 -1.9 88 33 2   101.06   -1 LegendNANA

Notes on Data Quality.

Legend

  • E = Estimated
  • M = Missing
  • NA = Not Available
  • ‡ = Partner data that is not subject to review by the National Climate Archives
Date modified: